| time (UTC) | temp C | wind direction | speed KPH | gust KPH | rain 1hr cm | rain 24hr cm | rain mn cm | humidity % | barometer mb |
| 20260906150503 | 26 | 26 | 9.7 | 17.7 | 0.00 | 0.00 | 0.00 | 76 | 1015.5 |
| 20260906150003 | 26 | 42 | 8.0 | 17.7 | 0.00 | 0.00 | 0.00 | 77 | 1015.6 |
| 20260906145503 | 26 | 50 | 8.0 | 16.1 | 0.00 | 0.00 | 0.00 | 77 | 1015.5 |
| 20260906145024 | 26 | 52 | 6.4 | 16.1 | 0.00 | 0.00 | 0.00 | 78 | 1015.5 |
| 20260906144503 | 26 | 63 | 6.4 | 14.5 | 0.00 | 0.00 | 0.00 | 78 | 1015.3 |
| 20260906144003 | 26 | 82 | 4.8 | 12.9 | 0.00 | 0.00 | 0.00 | 78 | 1015.3 |
| 20260906143503 | 26 | 75 | 4.8 | 16.1 | 0.00 | 0.00 | 0.00 | 79 | 1015.3 |
| 20260906143024 | 25 | 70 | 6.4 | 16.1 | 0.00 | 0.00 | 0.00 | 80 | 1015.2 |
| 20260906142502 | 25 | 54 | 6.4 | 14.5 | 0.00 | 0.00 | 0.00 | 80 | 1015.1 |
| 20260906142003 | 25 | 42 | 6.4 | 14.5 | 0.00 | 0.00 | 0.00 | 81 | 1015.1 |
| 20260906141502 | 25 | 65 | 8.0 | 17.7 | 0.00 | 0.00 | 0.00 | 81 | 1015.1 |
| 20260906141002 | 25 | 68 | 8.0 | 17.7 | 0.00 | 0.00 | 0.00 | 81 | 1015.3 |
| 20260906140524 | 25 | 45 | 6.4 | 16.1 | 0.00 | 0.00 | 0.00 | 82 | 1015.2 |
| 20260906140003 | 25 | 33 | 6.4 | 16.1 | 0.00 | 0.00 | 0.00 | 82 | 1015.2 |
| 20260906135503 | 25 | 60 | 6.4 | 16.1 | 0.00 | 0.00 | 0.00 | 82 | 1015.2 |
| 20260906135003 | 25 | 70 | 6.4 | 16.1 | 0.00 | 0.00 | 0.00 | 82 | 1015.1 |
| 20260906134503 | 25 | 79 | 3.2 | 16.1 | 0.00 | 0.00 | 0.00 | 83 | 1015.0 |
| 20260906134002 | 24 | 79 | 4.8 | 16.1 | 0.00 | 0.00 | 0.00 | 83 | 1015.1 |
| 20260906133503 | 24 | 74 | 6.4 | 16.1 | 0.00 | 0.00 | 0.00 | 83 | 1015.0 |
| 20260906133003 | 24 | 70 | 6.4 | 16.1 | 0.00 | 0.00 | 0.00 | 84 | 1015.1 |
| 20260906132504 | 23 | 56 | 4.8 | 14.5 | 0.00 | 0.00 | 0.00 | 84 | 1015.2 |
| 20260906132002 | 23 | 42 | 4.8 | 14.5 | 0.00 | 0.00 | 0.00 | 84 | 1015.1 |
| 20260906131523 | 23 | 35 | 4.8 | 12.9 | 0.00 | 0.00 | 0.00 | 84 | 1015.2 |
| 20260906131024 | 23 | 54 | 4.8 | 11.3 | 0.00 | 0.00 | 0.00 | 84 | 1015.1 |
| 20260906130503 | 23 | 56 | 4.8 | 8.0 | 0.00 | 0.00 | 0.00 | 84 | 1015.1 |
| 20260906130003 | 23 | 24 | 3.2 | 12.9 | 0.00 | 0.00 | 0.00 | 85 | 1015.2 |
| 20260906125523 | 23 | 20 | 4.8 | 12.9 | 0.00 | 0.00 | 0.00 | 84 | 1015.2 |
| 20260906125003 | 23 | 20 | 3.2 | 12.9 | 0.00 | 0.00 | 0.00 | 85 | 1015.1 |
| 20260906124503 | 22 | 25 | 3.2 | 12.9 | 0.00 | 0.00 | 0.00 | 85 | 1015.2 |
| 20260906124024 | 22 | 27 | 3.2 | 8.0 | 0.00 | 0.00 | 0.00 | 85 | 1015.2 |
| 20260906123503 | 22 | 25 | 4.8 | 9.7 | 0.00 | 0.00 | 0.00 | 85 | 1015.1 |
| 20260906123003 | 22 | 47 | 3.2 | 9.7 | 0.00 | 0.00 | 0.00 | 85 | 1015.0 |
| 20260906122502 | 22 | 77 | 3.2 | 8.0 | 0.00 | 0.00 | 0.00 | 85 | 1014.9 |
| 20260906122003 | 22 | 56 | 3.2 | 8.0 | 0.00 | 0.00 | 0.00 | 85 | 1014.8 |
| 20260906121503 | 22 | 36 | 1.6 | 6.4 | 0.00 | 0.00 | 0.00 | 85 | 1014.7 |
| 20260906121003 | 22 | 34 | 3.2 | 8.0 | 0.00 | 0.00 | 0.00 | 85 | 1014.7 |
| 20260906120524 | 22 | 42 | 3.2 | 8.0 | 0.00 | 0.00 | 0.00 | 85 | 1014.7 |
| 20260906120003 | 22 | 65 | 3.2 | 6.4 | 0.00 | 0.00 | 0.00 | 85 | 1014.5 |
| 20260906115503 | 22 | 73 | 3.2 | 6.4 | 0.00 | 0.00 | 0.00 | 85 | 1014.4 |
| 20260906115003 | 22 | 75 | 1.6 | 6.4 | 0.00 | 0.00 | 0.00 | 85 | 1014.4 |
| 20260906114503 | 22 | 0 | 0.0 | 4.8 | 0.00 | 0.00 | 0.00 | 85 | 1014.3 |
| 20260906114002 | 22 | 76 | 1.6 | 4.8 | 0.00 | 0.00 | 0.00 | 85 | 1014.3 |
| 20260906113503 | 22 | 76 | 1.6 | 4.8 | 0.00 | 0.00 | 0.00 | 85 | 1014.2 |
| 20260906113002 | 22 | 0 | 0.0 | 3.2 | 0.00 | 0.00 | 0.00 | 84 | 1014.1 |
| 20260906112502 | 22 | 77 | 1.6 | 3.2 | 0.00 | 0.00 | 0.00 | 84 | 1014.1 |
| 20260906112003 | 22 | 77 | 1.6 | 3.2 | 0.00 | 0.00 | 0.00 | 84 | 1014.3 |
| 20260906111503 | 22 | 77 | 1.6 | 3.2 | 0.00 | 0.00 | 0.00 | 84 | 1014.3 |
| 20260906111003 | 22 | 0 | 0.0 | 3.2 | 0.00 | 0.00 | 0.00 | 84 | 1014.4 |
| 20260906110502 | 22 | 77 | 1.6 | 3.2 | 0.00 | 0.00 | 0.00 | 84 | 1014.4 |
| 20260906110003 | 22 | 77 | 1.6 | 3.2 | 0.00 | 0.00 | 0.00 | 84 | 1014.2 |
| 20260906105503 | 23 | 77 | 1.6 | 4.8 | 0.00 | 0.00 | 0.00 | 84 | 1014.1 |
| 20260906105003 | 23 | 0 | 0.0 | 4.8 | 0.00 | 0.00 | 0.00 | 84 | 1014.0 |
| 20260906104503 | 23 | 79 | 1.6 | 4.8 | 0.00 | 0.00 | 0.00 | 84 | 1014.0 |
| 20260906104024 | 23 | 77 | 1.6 | 4.8 | 0.00 | 0.00 | 0.00 | 84 | 1013.9 |
| 20260906103503 | 23 | 75 | 1.6 | 8.0 | 0.00 | 0.00 | 0.00 | 84 | 1013.9 |
| 20260906103003 | 23 | 73 | 3.2 | 8.0 | 0.00 | 0.00 | 0.00 | 84 | 1014.0 |
| 20260906102502 | 23 | 71 | 3.2 | 8.0 | 0.00 | 0.00 | 0.00 | 84 | 1013.9 |
| 20260906102003 | 23 | 70 | 3.2 | 6.4 | 0.00 | 0.00 | 0.00 | 84 | 1013.8 |
| 20260906101503 | 23 | 63 | 3.2 | 8.0 | 0.00 | 0.00 | 0.00 | 84 | 1013.9 |
| 20260906101024 | 23 | 63 | 3.2 | 11.3 | 0.00 | 0.00 | 0.00 | 84 | 1013.8 |
| 20260906100503 | 23 | 73 | 3.2 | 11.3 | 0.00 | 0.00 | 0.00 | 84 | 1013.6 |
| 20260906100024 | 23 | 78 | 3.2 | 6.4 | 0.00 | 0.00 | 0.00 | 84 | 1013.7 |
| 20260906095503 | 23 | 77 | 3.2 | 6.4 | 0.00 | 0.00 | 0.00 | 84 | 1013.5 |
| 20260906095003 | 23 | 75 | 3.2 | 6.4 | 0.00 | 0.00 | 0.00 | 84 | 1013.5 |
| 20260906094503 | 23 | 75 | 3.2 | 8.0 | 0.00 | 0.00 | 0.00 | 84 | 1013.5 |
| 20260906094002 | 23 | 75 | 3.2 | 8.0 | 0.00 | 0.00 | 0.00 | 84 | 1013.5 |
| 20260906093524 | 24 | 72 | 1.6 | 4.8 | 0.00 | 0.00 | 0.00 | 84 | 1013.4 |
| 20260906093003 | 24 | 67 | 1.6 | 4.8 | 0.00 | 0.00 | 0.00 | 84 | 1013.4 |
| 20260906092503 | 24 | 67 | 1.6 | 6.4 | 0.00 | 0.00 | 0.00 | 84 | 1013.5 |
| 20260906092003 | 24 | 67 | 1.6 | 6.4 | 0.00 | 0.00 | 0.00 | 84 | 1013.5 |
| 20260906091503 | 24 | 66 | 1.6 | 4.8 | 0.00 | 0.00 | 0.00 | 84 | 1013.5 |
| 20260906091024 | 24 | 66 | 1.6 | 8.0 | 0.00 | 0.00 | 0.00 | 84 | 1013.5 |
| 20260906090503 | 24 | 62 | 3.2 | 8.0 | 0.00 | 0.00 | 0.00 | 84 | 1013.4 |
| 20260906090003 | 24 | 61 | 3.2 | 8.0 | 0.00 | 0.00 | 0.00 | 84 | 1013.4 |
| 20260906085503 | 25 | 69 | 3.2 | 9.7 | 0.00 | 0.00 | 0.00 | 84 | 1013.3 |
| 20260906085003 | 25 | 72 | 4.8 | 12.9 | 0.00 | 0.00 | 0.00 | 83 | 1013.2 |
| 20260906084503 | 25 | 71 | 4.8 | 12.9 | 0.00 | 0.00 | 0.00 | 83 | 1013.3 |
| 20260906084023 | 25 | 64 | 3.2 | 12.9 | 0.00 | 0.00 | 0.00 | 83 | 1013.2 |
| 20260906083503 | 25 | 66 | 3.2 | 8.0 | 0.00 | 0.00 | 0.00 | 83 | 1013.2 |
| 20260906083003 | 25 | 74 | 3.2 | 11.3 | 0.00 | 0.00 | 0.00 | 83 | 1013.1 |
| 20260906082503 | 25 | 77 | 3.2 | 11.3 | 0.00 | 0.00 | 0.00 | 83 | 1013.1 |
| 20260906082003 | 25 | 71 | 3.2 | 11.3 | 0.00 | 0.00 | 0.00 | 83 | 1013.1 |
| 20260906081502 | 25 | 65 | 4.8 | 14.5 | 0.00 | 0.00 | 0.00 | 83 | 1013.0 |
| 20260906081003 | 25 | 63 | 4.8 | 14.5 | 0.00 | 0.00 | 0.00 | 83 | 1013.0 |
| 20260906080503 | 25 | 66 | 3.2 | 9.7 | 0.00 | 0.00 | 0.00 | 83 | 1012.9 |
| 20260906080002 | 25 | 70 | 3.2 | 11.3 | 0.00 | 0.00 | 0.00 | 83 | 1013.0 |
| 20260906075503 | 25 | 78 | 1.6 | 11.3 | 0.00 | 0.00 | 0.00 | 83 | 1013.0 |
| 20260906075003 | 26 | 83 | 3.2 | 8.0 | 0.00 | 0.00 | 0.00 | 83 | 1012.9 |
| 20260906074503 | 26 | 79 | 3.2 | 12.9 | 0.00 | 0.00 | 0.00 | 83 | 1013.0 |
| 20260906074003 | 26 | 78 | 4.8 | 12.9 | 0.00 | 0.00 | 0.00 | 83 | 1013.0 |
| 20260906073503 | 26 | 82 | 3.2 | 9.7 | 0.00 | 0.00 | 0.00 | 83 | 1013.1 |
| 20260906073003 | 26 | 86 | 3.2 | 9.7 | 0.00 | 0.00 | 0.00 | 83 | 1013.2 |
| 20260906072502 | 26 | 56 | 3.2 | 9.7 | 0.00 | 0.00 | 0.00 | 83 | 1013.2 |
| 20260906072003 | 26 | 26 | 3.2 | 9.7 | 0.00 | 0.00 | 0.00 | 83 | 1013.2 |
| 20260906071503 | 26 | 47 | 3.2 | 8.0 | 0.00 | 0.00 | 0.00 | 83 | 1013.2 |
| 20260906071003 | 26 | 73 | 6.4 | 14.5 | 0.00 | 0.00 | 0.00 | 83 | 1013.1 |
| 20260906070502 | 26 | 76 | 4.8 | 14.5 | 0.00 | 0.00 | 0.00 | 83 | 1013.1 |
| 20260906070003 | 26 | 71 | 4.8 | 12.9 | 0.00 | 0.00 | 0.00 | 82 | 1013.1 |
| 20260906065503 | 26 | 73 | 4.8 | 12.9 | 0.00 | 0.00 | 0.00 | 82 | 1013.0 |
| 20260906065003 | 26 | 78 | 4.8 | 12.9 | 0.00 | 0.00 | 0.00 | 82 | 1013.1 |
| 20260906064503 | 26 | 78 | 3.2 | 12.9 | 0.00 | 0.00 | 0.00 | 82 | 1013.0 |
| 20260906064003 | 26 | 78 | 3.2 | 9.7 | 0.00 | 0.00 | 0.00 | 82 | 1013.1 |
| 20260906063503 | 26 | 79 | 3.2 | 8.0 | 0.00 | 0.00 | 0.00 | 82 | 1013.1 |
| 20260906063003 | 26 | 86 | 3.2 | 9.7 | 0.00 | 0.00 | 0.00 | 82 | 1013.0 |
| 20260906062503 | 27 | 94 | 1.6 | 9.7 | 0.00 | 0.00 | 0.00 | 81 | 1013.0 |
| 20260906062003 | 27 | 95 | 1.6 | 6.4 | 0.00 | 0.00 | 0.00 | 81 | 1013.0 |
| 20260906061503 | 27 | 90 | 3.2 | 6.4 | 0.00 | 0.00 | 0.00 | 81 | 1012.9 |
| 20260906061002 | 27 | 92 | 4.8 | 9.7 | 0.00 | 0.00 | 0.00 | 81 | 1013.0 |
| 20260906060503 | 26 | 87 | 4.8 | 9.7 | 0.00 | 0.00 | 0.00 | 81 | 1013.0 |
| 20260906060003 | 26 | 70 | 4.8 | 9.7 | 0.00 | 0.00 | 0.00 | 81 | 1013.0 |
| 20260906055503 | 26 | 69 | 4.8 | 9.7 | 0.00 | 0.00 | 0.00 | 81 | 1013.0 |
| 20260906055003 | 26 | 61 | 3.2 | 9.7 | 0.00 | 0.00 | 0.00 | 81 | 1013.0 |
| 20260906054503 | 26 | 13 | 3.2 | 9.7 | 0.00 | 0.00 | 0.00 | 81 | 1013.0 |
| 20260906054003 | 26 | 333 | 1.6 | 4.8 | 0.00 | 0.00 | 0.00 | 80 | 1013.0 |
| 20260906053524 | 26 | 0 | 0.0 | 3.2 | 0.00 | 0.00 | 0.00 | 80 | 1013.0 |
| 20260906053003 | 26 | 333 | 1.6 | 4.8 | 0.00 | 0.00 | 0.00 | 80 | 1013.0 |
| 20260906052502 | 26 | 333 | 1.6 | 4.8 | 0.00 | 0.00 | 0.00 | 80 | 1013.0 |
| 20260906052003 | 26 | 0 | 0.0 | 3.2 | 0.00 | 0.00 | 0.00 | 80 | 1012.9 |
| 20260906051503 | 26 | 0 | 0.0 | 3.2 | 0.00 | 0.00 | 0.00 | 79 | 1012.9 |
| 20260906051003 | 26 | 333 | 1.6 | 3.2 | 0.00 | 0.00 | 0.00 | 79 | 1012.9 |
| 20260906050503 | 26 | 333 | 1.6 | 4.8 | 0.00 | 0.00 | 0.00 | 79 | 1012.9 |
| 20260906050003 | 26 | 333 | 1.6 | 4.8 | 0.00 | 0.00 | 0.00 | 79 | 1012.9 |
| 20260906045503 | 26 | 0 | 0.0 | 3.2 | 0.00 | 0.00 | 0.00 | 78 | 1012.9 |
| 20260906045024 | 26 | 0 | 0.0 | 0.0 | 0.00 | 0.00 | 0.00 | 78 | 1012.9 |
| 20260906044503 | 27 | 0 | 0.0 | 0.0 | 0.00 | 0.00 | 0.00 | 78 | 1012.8 |
| 20260906044003 | 27 | 0 | 0.0 | 0.0 | 0.00 | 0.00 | 0.00 | 77 | 1012.7 |
| 20260906043502 | 27 | 0 | 0.0 | 0.0 | 0.00 | 0.00 | 0.00 | 77 | 1012.6 |
| 20260906043003 | 27 | 0 | 0.0 | 3.2 | 0.00 | 0.00 | 0.00 | 77 | 1012.6 |
| 20260906042523 | 27 | 333 | 1.6 | 3.2 | 0.00 | 0.00 | 0.00 | 77 | 1012.5 |
| 20260906042002 | 27 | 0 | 0.0 | 3.2 | 0.00 | 0.00 | 0.00 | 76 | 1012.7 |
| 20260906041503 | 27 | 0 | 0.0 | 1.6 | 0.00 | 0.00 | 0.00 | 76 | 1012.6 |
| 20260906041003 | 27 | 0 | 0.0 | 1.6 | 0.00 | 0.00 | 0.00 | 76 | 1012.5 |
| 20260906040524 | 27 | 0 | 0.0 | 1.6 | 0.00 | 0.00 | 0.00 | 75 | 1012.4 |
| 20260906040003 | 27 | 0 | 0.0 | 0.0 | 0.00 | 0.00 | 0.00 | 75 | 1012.3 |
| 20260906035503 | 27 | 0 | 0.0 | 0.0 | 0.00 | 0.00 | 0.00 | 75 | 1012.3 |
| 20260906035003 | 27 | 0 | 0.0 | 0.0 | 0.00 | 0.00 | 0.00 | 74 | 1012.3 |
| 20260906034503 | 27 | 0 | 0.0 | 0.0 | 0.00 | 0.00 | 0.00 | 74 | 1012.4 |
| 20260906034003 | 27 | 0 | 0.0 | 0.0 | 0.00 | 0.00 | 0.00 | 74 | 1012.3 |
| 20260906033503 | 27 | 0 | 0.0 | 0.0 | 0.00 | 0.00 | 0.00 | 73 | 1012.3 |
| 20260906033003 | 27 | 0 | 0.0 | 0.0 | 0.00 | 0.00 | 0.00 | 73 | 1012.3 |
| 20260906032503 | 27 | 0 | 0.0 | 0.0 | 0.00 | 0.00 | 0.00 | 72 | 1012.4 |
| 20260906032003 | 27 | 0 | 0.0 | 1.6 | 0.00 | 0.00 | 0.00 | 72 | 1012.3 |
| 20260906031503 | 27 | 0 | 0.0 | 1.6 | 0.00 | 0.00 | 0.00 | 71 | 1012.3 |
| 20260906031003 | 28 | 0 | 0.0 | 0.0 | 0.00 | 0.00 | 0.00 | 71 | 1012.2 |
| 20260906030503 | 28 | 0 | 0.0 | 0.0 | 0.00 | 0.00 | 0.00 | 70 | 1012.1 |
| 20260906030003 | 28 | 0 | 0.0 | 0.0 | 0.00 | 0.00 | 0.00 | 70 | 1012.1 |
| 20260906025503 | 28 | 0 | 0.0 | 0.0 | 0.00 | 0.00 | 0.00 | 69 | 1012.0 |
| 20260906025003 | 28 | 0 | 0.0 | 1.6 | 0.00 | 0.00 | 0.00 | 69 | 1012.0 |
| 20260906024503 | 28 | 0 | 0.0 | 3.2 | 0.00 | 0.00 | 0.00 | 68 | 1011.9 |
| 20260906024024 | 28 | 333 | 1.6 | 3.2 | 0.00 | 0.00 | 0.00 | 68 | 1011.9 |
| 20260906023524 | 28 | 333 | 1.6 | 4.8 | 0.00 | 0.00 | 0.00 | 67 | 1011.8 |
| 20260906023003 | 28 | 333 | 1.6 | 4.8 | 0.00 | 0.00 | 0.00 | 67 | 1011.7 |
| 20260906022503 | 28 | 0 | 0.0 | 3.2 | 0.00 | 0.00 | 0.00 | 67 | 1011.7 |
| 20260906022003 | 28 | 0 | 0.0 | 1.6 | 0.00 | 0.00 | 0.00 | 67 | 1011.6 |
| 20260906021524 | 28 | 0 | 0.0 | 3.2 | 0.00 | 0.00 | 0.00 | 67 | 1011.6 |
| 20260906021024 | 28 | 0 | 0.0 | 3.2 | 0.00 | 0.00 | 0.00 | 67 | 1011.5 |
| 20260906020503 | 28 | 333 | 1.6 | 3.2 | 0.00 | 0.00 | 0.00 | 67 | 1011.3 |
| 20260906020003 | 29 | 333 | 1.6 | 3.2 | 0.00 | 0.00 | 0.00 | 65 | 1011.2 |
| 20260906015503 | 29 | 333 | 1.6 | 3.2 | 0.00 | 0.00 | 0.00 | 65 | 1011.1 |
| 20260906015024 | 29 | 333 | 1.6 | 4.8 | 0.00 | 0.00 | 0.00 | 65 | 1011.1 |
| 20260906014503 | 29 | 0 | 0.0 | 4.8 | 0.00 | 0.00 | 0.00 | 65 | 1011.0 |
| 20260906014003 | 29 | 333 | 1.6 | 3.2 | 0.00 | 0.00 | 0.00 | 66 | 1011.0 |
| 20260906013503 | 30 | 333 | 1.6 | 4.8 | 0.00 | 0.00 | 0.00 | 66 | 1010.9 |
| 20260906013003 | 30 | 333 | 1.6 | 4.8 | 0.00 | 0.00 | 0.00 | 66 | 1010.9 |
| 20260906012502 | 30 | 333 | 1.6 | 4.8 | 0.00 | 0.00 | 0.00 | 66 | 1010.8 |
| 20260906012003 | 30 | 332 | 3.2 | 4.8 | 0.00 | 0.00 | 0.00 | 65 | 1010.8 |
| 20260906011503 | 30 | 332 | 1.6 | 4.8 | 0.00 | 0.00 | 0.00 | 65 | 1010.8 |
| 20260906011003 | 30 | 332 | 1.6 | 4.8 | 0.00 | 0.00 | 0.00 | 65 | 1010.8 |
| 20260906010503 | 30 | 332 | 1.6 | 4.8 | 0.00 | 0.00 | 0.00 | 65 | 1010.8 |
| 20260906010003 | 31 | 334 | 3.2 | 4.8 | 0.00 | 0.00 | 0.00 | 65 | 1010.7 |
| 20260906005503 | 31 | 336 | 1.6 | 4.8 | 0.00 | 0.00 | 0.00 | 64 | 1010.6 |
| 20260906005003 | 31 | 336 | 1.6 | 4.8 | 0.00 | 0.00 | 0.00 | 64 | 1010.6 |
| 20260906004503 | 31 | 336 | 1.6 | 3.2 | 0.00 | 0.00 | 0.00 | 63 | 1010.6 |
| 20260906004003 | 31 | 0 | 0.0 | 3.2 | 0.00 | 0.00 | 0.00 | 63 | 1010.5 |
| 20260906003503 | 31 | 0 | 0.0 | 4.8 | 0.00 | 0.00 | 0.00 | 62 | 1010.4 |
| 20260906003024 | 31 | 335 | 1.6 | 6.4 | 0.00 | 0.00 | 0.00 | 62 | 1010.4 |
| 20260906002503 | 31 | 333 | 1.6 | 6.4 | 0.00 | 0.00 | 0.00 | 62 | 1010.5 |
| 20260906002003 | 32 | 331 | 1.6 | 4.8 | 0.00 | 0.00 | 0.00 | 61 | 1010.5 |
| 20260906001524 | 32 | 331 | 1.6 | 4.8 | 0.00 | 0.00 | 0.00 | 61 | 1010.6 |
| 20260906001003 | 32 | 330 | 1.6 | 8.0 | 0.00 | 0.00 | 0.00 | 61 | 1010.6 |
| 20260906000503 | 32 | 328 | 1.6 | 8.0 | 0.00 | 0.00 | 0.00 | 60 | 1010.7 |
| 20260906000003 | 32 | 324 | 3.2 | 6.4 | 0.00 | 0.00 | 0.00 | 59 | 1010.7 |
| 20260905235503 | 32 | 317 | 3.2 | 8.0 | 0.00 | 0.00 | 0.00 | 59 | 1010.7 |
| 20260905235003 | 32 | 305 | 3.2 | 8.0 | 0.00 | 0.00 | 0.00 | 59 | 1010.7 |
| 20260905234524 | 32 | 298 | 3.2 | 6.4 | 0.00 | 0.00 | 0.00 | 58 | 1010.7 |
| 20260905234003 | 32 | 295 | 3.2 | 6.4 | 0.00 | 0.00 | 0.00 | 58 | 1010.7 |
| 20260905233503 | 32 | 295 | 3.2 | 6.4 | 0.00 | 0.00 | 0.00 | 57 | 1010.6 |
| 20260905233003 | 33 | 296 | 3.2 | 11.3 | 0.00 | 0.00 | 0.00 | 57 | 1010.7 |
| 20260905232503 | 33 | 294 | 4.8 | 11.3 | 0.00 | 0.00 | 0.00 | 56 | 1010.7 |
| 20260905232003 | 33 | 294 | 4.8 | 8.0 | 0.00 | 0.00 | 0.00 | 56 | 1010.7 |
| 20260905231503 | 33 | 304 | 6.4 | 11.3 | 0.00 | 0.00 | 0.00 | 55 | 1010.8 |
| 20260905231003 | 33 | 309 | 8.0 | 14.5 | 0.00 | 0.00 | 0.00 | 54 | 1010.8 |
| 20260905230524 | 34 | 303 | 8.0 | 16.1 | 0.00 | 0.00 | 0.00 | 52 | 1010.7 |
| 20260905230003 | 34 | 296 | 6.4 | 16.1 | 0.00 | 0.00 | 0.00 | 52 | 1010.9 |
| 20260905225503 | 35 | 297 | 4.8 | 11.3 | 0.00 | 0.00 | 0.00 | 52 | 1010.8 |
| 20260905225003 | 35 | 300 | 4.8 | 12.9 | 0.00 | 0.00 | 0.00 | 51 | 1010.8 |
| 20260905224524 | 35 | 321 | 4.8 | 12.9 | 0.00 | 0.00 | 0.00 | 51 | 1010.7 |
| 20260905224003 | 35 | 8 | 3.2 | 6.4 | 0.00 | 0.00 | 0.00 | 51 | 1010.7 |
| 20260905223524 | 35 | 12 | 3.2 | 6.4 | 0.00 | 0.00 | 0.00 | 50 | 1010.5 |
| 20260905223003 | 35 | 11 | 3.2 | 6.4 | 0.00 | 0.00 | 0.00 | 50 | 1010.3 |
| 20260905222503 | 36 | 10 | 3.2 | 6.4 | 0.00 | 0.00 | 0.00 | 48 | 1010.4 |
| 20260905222003 | 36 | 10 | 3.2 | 6.4 | 0.00 | 0.00 | 0.00 | 48 | 1010.4 |
| 20260905221503 | 36 | 10 | 3.2 | 8.0 | 0.00 | 0.00 | 0.00 | 47 | 1010.4 |
| 20260905221003 | 36 | 16 | 3.2 | 9.7 | 0.00 | 0.00 | 0.00 | 47 | 1010.5 |
| 20260905220503 | 36 | 20 | 4.8 | 11.3 | 0.00 | 0.00 | 0.00 | 47 | 1010.5 |
| 20260905220024 | 37 | 11 | 4.8 | 11.3 | 0.00 | 0.00 | 0.00 | 45 | 1010.5 |
| 20260905215503 | 37 | 2 | 4.8 | 14.5 | 0.00 | 0.00 | 0.00 | 45 | 1010.6 |
| 20260905215003 | 37 | 10 | 6.4 | 14.5 | 0.00 | 0.00 | 0.00 | 44 | 1010.6 |
| 20260905214503 | 37 | 25 | 6.4 | 14.5 | 0.00 | 0.00 | 0.00 | 44 | 1010.6 |
| 20260905214003 | 37 | 29 | 8.0 | 16.1 | 0.00 | 0.00 | 0.00 | 43 | 1010.6 |
| 20260905213503 | 37 | 24 | 8.0 | 16.1 | 0.00 | 0.00 | 0.00 | 43 | 1010.6 |
| 20260905213003 | 37 | 27 | 6.4 | 16.1 | 0.00 | 0.00 | 0.00 | 44 | 1010.6 |
| 20260905212503 | 37 | 24 | 6.4 | 14.5 | 0.00 | 0.00 | 0.00 | 45 | 1010.5 |
| 20260905212003 | 37 | 12 | 6.4 | 14.5 | 0.00 | 0.00 | 0.00 | 43 | 1010.4 |
| 20260905211503 | 37 | 28 | 4.8 | 12.9 | 0.00 | 0.00 | 0.00 | 43 | 1010.5 |
| 20260905211003 | 37 | 52 | 6.4 | 12.9 | 0.00 | 0.00 | 0.00 | 44 | 1010.5 |
| 20260905210503 | 38 | 41 | 6.4 | 14.5 | 0.00 | 0.00 | 0.00 | 44 | 1010.6 |
| 20260905210003 | 38 | 25 | 6.4 | 14.5 | 0.00 | 0.00 | 0.00 | 44 | 1010.7 |
| 20260905205524 | 37 | 34 | 6.4 | 14.5 | 0.00 | 0.00 | 0.00 | 44 | 1010.8 |
| 20260905205002 | 37 | 33 | 8.0 | 14.5 | 0.00 | 0.00 | 0.00 | 43 | 1010.9 |
| 20260905204503 | 37 | 30 | 8.0 | 16.1 | 0.00 | 0.00 | 0.00 | 43 | 1011.0 |
| 20260905204024 | 37 | 29 | 8.0 | 16.1 | 0.00 | 0.00 | 0.00 | 44 | 1011.0 |
| 20260905203503 | 37 | 25 | 6.4 | 14.5 | 0.00 | 0.00 | 0.00 | 45 | 1011.0 |
| 20260905203024 | 37 | 24 | 6.4 | 11.3 | 0.00 | 0.00 | 0.00 | 45 | 1010.9 |
| 20260905202524 | 37 | 10 | 4.8 | 11.3 | 0.00 | 0.00 | 0.00 | 45 | 1010.9 |
| 20260905202003 | 37 | 2 | 6.4 | 17.7 | 0.00 | 0.00 | 0.00 | 43 | 1011.0 |
| 20260905201502 | 38 | 21 | 8.0 | 17.7 | 0.00 | 0.00 | 0.00 | 42 | 1011.1 |
| 20260905201003 | 38 | 30 | 8.0 | 17.7 | 0.00 | 0.00 | 0.00 | 43 | 1011.1 |
| 20260905200503 | 37 | 360 | 8.0 | 17.7 | 0.00 | 0.00 | 0.00 | 42 | 1011.1 |
| 20260905200003 | 37 | 3 | 8.0 | 17.7 | 0.00 | 0.00 | 0.00 | 39 | 1011.2 |
| 20260905195524 | 37 | 29 | 8.0 | 16.1 | 0.00 | 0.00 | 0.00 | 43 | 1011.2 |
| 20260905195003 | 37 | 29 | 8.0 | 16.1 | 0.00 | 0.00 | 0.00 | 44 | 1011.2 |
| 20260905194503 | 37 | 25 | 9.7 | 19.3 | 0.00 | 0.00 | 0.00 | 45 | 1011.2 |
| 20260905194024 | 37 | 11 | 9.7 | 20.9 | 0.00 | 0.00 | 0.00 | 45 | 1011.3 |
| 20260905193503 | 37 | 355 | 8.0 | 25.7 | 0.00 | 0.00 | 0.00 | 46 | 1011.3 |
| 20260905193024 | 37 | 356 | 12.9 | 30.6 | 0.00 | 0.00 | 0.00 | 45 | 1011.4 |
| 20260905192503 | 38 | 324 | 12.9 | 30.6 | 0.00 | 0.00 | 0.00 | 42 | 1011.6 |
| 20260905192003 | 39 | 288 | 11.3 | 19.3 | 0.00 | 0.00 | 0.00 | 38 | 1011.3 |
| 20260905191503 | 38 | 289 | 11.3 | 19.3 | 0.00 | 0.00 | 0.00 | 38 | 1011.4 |
| 20260905191002 | 38 | 290 | 9.7 | 19.3 | 0.00 | 0.00 | 0.00 | 39 | 1011.5 |
| 20260905190503 | 38 | 295 | 9.7 | 17.7 | 0.00 | 0.00 | 0.00 | 40 | 1011.6 |
| 20260905190003 | 38 | 304 | 9.7 | 20.9 | 0.00 | 0.00 | 0.00 | 37 | 1011.6 |
| 20260905185503 | 39 | 300 | 9.7 | 20.9 | 0.00 | 0.00 | 0.00 | 38 | 1011.7 |
| 20260905185003 | 39 | 291 | 11.3 | 22.5 | 0.00 | 0.00 | 0.00 | 38 | 1011.8 |
| 20260905184524 | 39 | 282 | 12.9 | 24.1 | 0.00 | 0.00 | 0.00 | 39 | 1011.8 |
| 20260905184002 | 38 | 283 | 9.7 | 24.1 | 0.00 | 0.00 | 0.00 | 39 | 1011.7 |
| 20260905183524 | 38 | 298 | 6.4 | 17.7 | 0.00 | 0.00 | 0.00 | 39 | 1011.7 |
| 20260905183003 | 38 | 310 | 6.4 | 14.5 | 0.00 | 0.00 | 0.00 | 41 | 1011.8 |
| 20260905182503 | 38 | 304 | 6.4 | 14.5 | 0.00 | 0.00 | 0.00 | 41 | 1011.8 |
| 20260905182003 | 38 | 293 | 6.4 | 17.7 | 0.00 | 0.00 | 0.00 | 40 | 1011.8 |
| 20260905181503 | 38 | 303 | 8.0 | 17.7 | 0.00 | 0.00 | 0.00 | 40 | 1011.9 |
| 20260905181003 | 38 | 317 | 6.4 | 14.5 | 0.00 | 0.00 | 0.00 | 39 | 1012.1 |
| 20260905180524 | 38 | 298 | 4.8 | 14.5 | 0.00 | 0.00 | 0.00 | 40 | 1012.1 |
| 20260905180003 | 38 | 272 | 4.8 | 14.5 | 0.00 | 0.00 | 0.00 | 41 | 1012.2 |
| 20260905175503 | 38 | 267 | 4.8 | 11.3 | 0.00 | 0.00 | 0.00 | 43 | 1012.1 |
| 20260905175003 | 38 | 290 | 4.8 | 12.9 | 0.00 | 0.00 | 0.00 | 44 | 1012.3 |
| 20260905174503 | 37 | 295 | 6.4 | 16.1 | 0.00 | 0.00 | 0.00 | 45 | 1012.3 |
| 20260905174002 | 37 | 279 | 6.4 | 16.1 | 0.00 | 0.00 | 0.00 | 45 | 1012.4 |
| 20260905173503 | 37 | 274 | 6.4 | 12.9 | 0.00 | 0.00 | 0.00 | 45 | 1012.4 |
| 20260905173003 | 37 | 299 | 6.4 | 12.9 | 0.00 | 0.00 | 0.00 | 46 | 1012.4 |
| 20260905172503 | 37 | 301 | 4.8 | 11.3 | 0.00 | 0.00 | 0.00 | 47 | 1012.4 |
| 20260905172003 | 37 | 301 | 4.8 | 9.7 | 0.00 | 0.00 | 0.00 | 47 | 1012.5 |
| 20260905171503 | 37 | 340 | 3.2 | 9.7 | 0.00 | 0.00 | 0.00 | 49 | 1012.4 |
| 20260905171024 | 37 | 329 | 3.2 | 8.0 | 0.00 | 0.00 | 0.00 | 50 | 1012.6 |
| 20260905170503 | 36 | 310 | 4.8 | 11.3 | 0.00 | 0.00 | 0.00 | 50 | 1012.7 |
| 20260905170024 | 36 | 307 | 6.4 | 14.5 | 0.00 | 0.00 | 0.00 | 49 | 1012.8 |
| 20260905165502 | 36 | 316 | 6.4 | 14.5 | 0.00 | 0.00 | 0.00 | 50 | 1012.9 |
| 20260905165003 | 36 | 316 | 4.8 | 12.9 | 0.00 | 0.00 | 0.00 | 50 | 1012.9 |
| 20260905164503 | 36 | 337 | 6.4 | 14.5 | 0.00 | 0.00 | 0.00 | 50 | 1013.0 |
| 20260905164003 | 36 | 360 | 4.8 | 14.5 | 0.00 | 0.00 | 0.00 | 48 | 1013.0 |
| 20260905163503 | 36 | 356 | 4.8 | 9.7 | 0.00 | 0.00 | 0.00 | 52 | 1013.0 |
| 20260905163003 | 36 | 350 | 4.8 | 8.0 | 0.00 | 0.00 | 0.00 | 53 | 1013.1 |
| 20260905162503 | 36 | 301 | 4.8 | 11.3 | 0.00 | 0.00 | 0.00 | 51 | 1013.2 |
| 20260905162024 | 36 | 302 | 4.8 | 11.3 | 0.00 | 0.00 | 0.00 | 52 | 1013.1 |
| 20260905161503 | 35 | 302 | 6.4 | 14.5 | 0.00 | 0.00 | 0.00 | 52 | 1013.2 |
| 20260905161003 | 35 | 274 | 4.8 | 14.5 | 0.00 | 0.00 | 0.00 | 53 | 1013.2 |
| 20260905160503 | 35 | 269 | 4.8 | 11.3 | 0.00 | 0.00 | 0.00 | 53 | 1013.2 |
| 20260905160024 | 35 | 280 | 4.8 | 11.3 | 0.00 | 0.00 | 0.00 | 54 | 1013.2 |
| 20260905155503 | 35 | 277 | 4.8 | 12.9 | 0.00 | 0.00 | 0.00 | 52 | 1013.2 |
| 20260905155003 | 35 | 272 | 4.8 | 12.9 | 0.00 | 0.00 | 0.00 | 55 | 1013.1 |
| 20260905154503 | 35 | 275 | 4.8 | 11.3 | 0.00 | 0.00 | 0.00 | 56 | 1013.1 |
| 20260905154003 | 34 | 283 | 4.8 | 11.3 | 0.00 | 0.00 | 0.00 | 57 | 1013.1 |
| 20260905153503 | 34 | 305 | 4.8 | 8.0 | 0.00 | 0.00 | 0.00 | 55 | 1013.2 |
| 20260905153003 | 34 | 311 | 6.4 | 12.9 | 0.00 | 0.00 | 0.00 | 56 | 1013.3 |
| 20260905152503 | 34 | 297 | 6.4 | 12.9 | 0.00 | 0.00 | 0.00 | 55 | 1013.3 |
| 20260905152002 | 33 | 272 | 6.4 | 12.9 | 0.00 | 0.00 | 0.00 | 58 | 1013.2 |
| 20260905151524 | 33 | 264 | 4.8 | 12.9 | 0.00 | 0.00 | 0.00 | 58 | 1013.2 |
| 20260905151003 | 33 | 264 | 4.8 | 11.3 | 0.00 | 0.00 | 0.00 | 60 | 1013.1 |